Total_Precipitation_Accumulation
0.00 0.00 0.00 0.00 0.01 0.01 0.01 0.04 0.11 0.15 0.14 0.20 0.30 0.50 0.64 0.63 0.81 1.20 1.43 1.45 1.42 1.72 2.22 2.58 2.83 3.01 3.34 3.51 3.63 3.60 3.77 4.09 4.37 4.20 3.85 3.61 3.26 3.01 2.81 2.57 2.41 2.40 2.38 2.52
0.00 0.01 0.00 0.01 0.01 0.01 0.02 0.06 0.14 0.16 0.15 0.25 0.38 0.60 0.76 0.85 1.10 1.27 1.21 1.23 1.40 1.77 2.27 2.63 2.91 3.07 3.32 3.57 3.96 4.04 4.17 4.47 4.55 4.35 4.21 4.03 3.82 3.40 3.25 3.10 2.86 2.50 2.33 2.41
0.01 0.01 0.01 0.01 0.01 0.02 0.04 0.07 0.13 0.14 0.21 0.34 0.44 0.82 0.99 1.11 1.25 1.24 1.21 1.42 1.46 1.56 1.98 2.26 2.38 2.59 2.77 2.89 3.11 3.37 3.81 4.28 4.39 4.43 4.35 4.25 4.20 3.66 3.36 3.18 2.92 2.59 2.36 2.29
0.01 0.01 0.01 0.02 0.02 0.02 0.06 0.06 0.06 0.10 0.19 0.45 0.52 1.04 1.25 1.45 1.54 1.34 1.31 1.28 1.30 1.56 1.89 1.92 1.79 1.94 2.20 2.19 2.48 2.85 3.27 3.58 3.78 3.90 3.86 3.82 3.67 3.41 3.30 3.16 2.76 2.47 2.27 2.20
0.02 0.02 0.02 0.04 0.03 0.03 0.05 0.04 0.07 0.11 0.19 0.41 0.46 0.81 1.29 1.66 1.78 1.40 1.28 1.19 1.29 1.55 1.61 1.58 1.60 1.71 1.88 2.05 2.36 2.64 2.90 3.15 3.30 3.35 3.37 3.40 3.23 3.10 3.05 2.91 2.61 2.32 2.16 2.06
0.02 0.04 0.04 0.03 0.03 0.04 0.04 0.07 0.13 0.20 0.37 0.71 0.61 0.71 1.21 1.55 1.41 1.21 1.17 1.00 1.10 1.33 1.43 1.49 1.58 1.71 1.84 2.13 2.48 2.73 2.91 3.09 3.13 2.89 2.76 2.73 2.73 2.73 2.63 2.44 2.23 2.01 1.89 1.80
0.13 0.10 0.07 0.05 0.06 0.07 0.08 0.17 0.56 0.92 1.24 1.14 0.72 0.82 1.39 1.26 0.91 0.84 0.93 0.92 0.94 1.01 1.16 1.28 1.46 1.67 1.84 1.94 2.02 2.36 2.68 2.87 2.81 2.57 2.39 2.28 2.34 2.39 2.32 2.15 2.06 1.94 1.72 1.58
0.28 0.25 0.13 0.09 0.12 0.13 0.13 0.24 0.69 0.95 0.99 0.97 0.78 1.17 1.60 1.20 0.81 0.67 0.77 0.79 0.70 0.66 0.64 0.73 0.91 1.02 1.11 1.13 1.17 1.30 1.51 1.74 1.82 1.74 1.74 1.74 1.77 1.78 1.77 1.86 1.77 1.75 1.62 1.48
0.16 0.15 0.10 0.12 0.17 0.18 0.24 0.28 0.29 0.49 0.68 1.01 1.02 1.19 1.21 0.96 0.78 0.73 0.83 0.77 0.61 0.55 0.50 0.57 0.67 0.68 0.77 0.81 0.85 1.00 1.19 1.34 1.38 1.38 1.39 1.41 1.39 1.43 1.46 1.48 1.44 1.45 1.46 1.39
0.10 0.10 0.10 0.11 0.15 0.18 0.20 0.28 0.42 0.67 0.90 1.02 1.09 1.36 1.49 1.32 1.08 0.96 0.92 0.78 0.58 0.48 0.44 0.49 0.58 0.59 0.69 0.83 0.99 1.14 1.24 1.27 1.24 1.25 1.23 1.14 1.23 1.24 1.28 1.23 1.16 1.16 1.19 1.22
0.08 0.09 0.12 0.18 0.22 0.22 0.23 0.30 0.45 0.62 0.69 0.87 1.20 1.28 1.00 0.94 0.97 1.05 1.06 0.88 0.61 0.46 0.42 0.45 0.54 0.59 0.66 0.79 0.92 1.06 1.17 1.26 1.20 1.14 1.17 1.18 1.19 1.19 1.17 1.13 1.05 1.08 1.11 1.12
0.09 0.11 0.16 0.24 0.21 0.16 0.22 0.32 0.47 0.70 0.76 0.80 0.93 0.99 0.58 0.57 0.68 0.81 0.81 0.65 0.48 0.41 0.40 0.45 0.50 0.52 0.62 0.74 0.83 0.83 0.90 1.05 1.06 1.05 1.14 1.29 1.26 1.21 1.11 1.01 0.96 0.99 1.03 1.04
0.15 0.15 0.27 0.53 0.49 0.26 0.25 0.25 0.35 0.49 0.60 0.68 0.85 0.96 0.57 0.55 0.68 0.75 0.71 0.57 0.49 0.47 0.48 0.53 0.52 0.49 0.55 0.65 0.72 0.73 0.80 0.92 1.01 1.04 1.14 1.25 1.19 1.13 1.01 0.90 0.92 0.93 0.93 0.98
0.13 0.14 0.24 0.61 0.65 0.43 0.31 0.27 0.31 0.43 0.54 0.51 0.49 0.65 0.63 0.62 0.76 0.76 0.73 0.64 0.61 0.52 0.52 0.59 0.64 0.56 0.54 0.58 0.61 0.62 0.74 0.90 0.93 0.93 0.98 1.02 0.96 0.92 0.93 0.92 0.89 0.86 0.89 0.93
0.13 0.17 0.17 0.26 0.35 0.38 0.37 0.30 0.26 0.29 0.33 0.42 0.43 0.57 0.69 0.69 0.73 0.66 0.61 0.60 0.63 0.56 0.48 0.50 0.49 0.47 0.48 0.50 0.52 0.58 0.61 0.70 0.81 0.87 0.88 0.90 0.92 0.91 0.89 0.86 0.81 0.80 0.81 0.76
0.20 0.24 0.22 0.30 0.36 0.38 0.39 0.35 0.28 0.24 0.25 0.29 0.36 0.50 0.54 0.61 0.61 0.60 0.53 0.51 0.56 0.46 0.38 0.38 0.33 0.30 0.33 0.39 0.43 0.49 0.51 0.58 0.66 0.69 0.70 0.83 0.93 0.90 0.87 0.80 0.75 0.74 0.75 0.80
0.30 0.33 0.33 0.37 0.44 0.52 0.54 0.34 0.31 0.31 0.28 0.39 0.58 0.60 0.54 0.71 0.65 0.55 0.48 0.42 0.38 0.36 0.33 0.29 0.24 0.23 0.27 0.33 0.40 0.44 0.51 0.54 0.60 0.64 0.66 0.67 0.78 0.84 0.81 0.73 0.70 0.71 0.75 0.82
0.36 0.50 0.52 0.49 0.65 0.79 0.62 0.34 0.29 0.34 0.31 0.30 0.41 0.44 0.46 0.69 0.67 0.51 0.42 0.39 0.34 0.32 0.30 0.26 0.26 0.26 0.31 0.37 0.42 0.51 0.56 0.58 0.61 0.69 0.73 0.69 0.69 0.77 0.80 0.76 0.72 0.76 0.80 0.82
0.31 0.49 0.56 0.61 0.74 0.75 0.60 0.47 0.41 0.46 0.50 0.33 0.36 0.40 0.41 0.48 0.54 0.56 0.41 0.41 0.43 0.36 0.35 0.32 0.29 0.31 0.39 0.43 0.47 0.58 0.60 0.63 0.68 0.72 0.75 0.72 0.70 0.75 0.79 0.79 0.82 0.88 0.93 0.86
0.40 0.52 0.65 0.62 0.76 0.91 0.73 0.56 0.47 0.52 0.89 0.56 0.39 0.35 0.38 0.44 0.65 0.72 0.50 0.39 0.36 0.34 0.38 0.41 0.40 0.45 0.49 0.52 0.61 0.71 0.76 0.81 0.85 0.80 0.76 0.74 0.78 0.82 0.85 0.93 1.06 1.12 1.14 1.07
0.79 0.82 0.80 0.75 0.80 0.79 0.70 0.55 0.50 0.88 1.07 0.62 0.48 0.44 0.46 0.48 0.57 0.58 0.49 0.42 0.38 0.40 0.46 0.56 0.64 0.72 0.76 0.69 0.76 0.86 0.96 1.00 0.97 0.98 0.96 0.92 0.95 1.03 1.10 1.25 1.35 1.41 1.37 1.41
1.02 1.03 0.99 0.97 1.10 1.10 0.81 0.77 0.90 1.00 0.89 0.72 0.60 0.57 0.51 0.49 0.46 0.48 0.47 0.48 0.44 0.45 0.53 0.60 0.67 0.76 0.84 0.91 0.98 1.04 1.05 1.08 1.15 1.15 1.16 1.18 1.24 1.14 1.15 1.37 1.46 1.57 1.66 1.64
1.00 1.03 1.05 1.09 1.13 1.00 0.90 1.01 1.05 0.93 0.96 0.89 0.73 0.70 0.63 0.58 0.48 0.43 0.45 0.47 0.49 0.51 0.55 0.61 0.63 0.69 0.83 0.94 1.04 1.19 1.25 1.23 1.29 1.35 1.35 1.39 1.43 1.47 1.49 1.61 1.67 1.71 1.73 1.70
1.08 0.96 1.09 1.21 1.25 1.16 1.15 1.12 1.08 1.04 1.01 0.91 0.74 0.72 0.68 0.61 0.52 0.51 0.50 0.53 0.55 0.56 0.56 0.57 0.62 0.67 0.79 0.96 1.15 1.29 1.33 1.29 1.38 1.48 1.48 1.58 1.71 1.75 1.77 1.86 1.86 1.86 1.85 1.80
1.20 1.17 1.40 1.52 1.49 1.49 1.50 1.32 1.16 1.06 0.92 0.82 0.69 0.67 0.63 0.59 0.56 0.52 0.53 0.56 0.53 0.50 0.51 0.54 0.60 0.70 0.74 0.81 0.98 1.17 1.30 1.37 1.50 1.60 1.64 1.75 1.89 1.97 2.02 1.91 1.90 1.92 1.97 1.91
1.23 1.29 1.48 1.63 1.48 1.44 1.50 1.34 1.10 1.06 1.05 0.96 0.92 0.88 0.77 0.69 0.69 0.61 0.53 0.51 0.48 0.46 0.47 0.54 0.57 0.64 0.71 0.75 0.88 1.06 1.27 1.42 1.62 1.67 1.72 1.81 1.89 1.99 2.01 1.98 1.88 1.77 1.69 1.65